[[{"header":{"parameterUnit":"m.s-1","parameterCategory":1,"la1":30.2991,"la2":30.254,"lo1":-89.0895,"lo2":-89.0444,"dx":0.0017,"dy":0.0017,"nx":28,"ny":28,"refTime":"2022-11-21T15:00:00:Z","depth":0,"parameterNumber":2,"parameterNumberName":"U-component_of_WINDS"},"data":[0,0,0,0,0,0,0,0,0,0,0,0,0,0,0,0,0,0,0,0,0,0,0,0,0,0,0,0,0,0,0,0,0,0,0,0,0,0,0,0,0,0,0,0,0,0,0,0,0,0,0,0,0,0,0,0,0,0,-1.7009,-1.7009,0,-1.7077,-1.7078,-1.7079,-1.6986,-1.6983,-1.698,-1.6977,-1.7052,-1.7057,-1.7063,0,0,0,0,0,0,0,0,0,0,0,0,0,-1.6803,-1.6807,-1.7009,-1.701,-1.701,-1.7077,-1.7078,-1.7079,-1.6987,-1.6983,-1.6979,-1.6975,-1.7051,-1.7057,-1.7063,0,0,0,0,0,0,0,0,0,0,0,0,0,-1.6884,-1.6809,-1.7009,-1.6972,-1.697,-1.7077,-1.7078,-1.7079,-1.6988,-1.6983,-1.6978,-1.6973,-1.7049,-1.7056,-1.7064,-1.7211,0,0,-1.7087,-1.7091,0,0,0,0,0,0,0,0,-1.688,-1.6892,-1.6977,-1.6975,-1.6972,-1.7018,-1.7033,-1.7124,-1.6989,-1.6981,-1.6976,-1.6971,-1.7045,-1.7053,-1.7077,-1.7215,-1.7218,-1.7088,-1.7093,-1.7096,-1.7098,0,0,0,0,0,0,0,-1.6874,-1.6888,-1.7036,-1.6978,-1.6976,-1.6954,-1.696,-1.705,-1.7041,-1.6981,-1.6975,-1.6984,-1.7043,-1.707,-1.7078,-1.7219,-1.7088,-1.7095,-1.7099,-1.7102,-1.7483,-1.7488,0,0,0,0,0,0,-1.6872,-1.6884,-1.7034,-1.7038,-1.6913,-1.6962,-1.6969,-1.7009,-1.7039,-1.7039,-1.6988,-1.6979,-1.7059,-1.7069,-1.7081,-1.7257,-1.7096,-1.7103,-1.7108,-1.7478,-1.7484,-1.749,0,0,0,0,0,0,-1.6868,-1.6886,-1.7031,-1.6959,-1.6976,-1.6971,-1.7016,-1.7013,-1.7039,-1.7044,-1.7043,-1.7017,-1.7056,-1.707,-1.7179,-1.7258,-1.7107,-1.7114,-1.7471,-1.748,-1.7487,-1.761,0,0,0,0,0,0,-1.6863,-1.6885,-1.6941,-1.6961,-1.698,-1.7128,-1.7021,-1.7017,-1.7052,-1.7041,-1.7071,-1.7071,-1.7053,-1.7169,-1.7187,-1.7266,-1.712,-1.7464,-1.7475,-1.7485,-1.7599,-1.7622,-1.7641,0,0,0,0,0,-1.6856,-1.6973,-1.6944,-1.6962,-1.7049,-1.7132,-1.7144,-1.7119,-1.7058,-1.7115,-1.7118,-1.707,-1.7246,-1.7181,-1.7201,-1.7283,-1.7459,-1.7472,-1.7484,-1.759,-1.7617,-1.764,0,0,0,0,0,0,-1.6964,-1.6975,-1.6943,-1.707,-1.7101,-1.7117,-1.7187,-1.7148,-1.7198,-1.7186,-1.7154,-1.7162,-1.728,-1.7292,-1.7219,-1.7428,-1.7343,-1.736,-1.7417,-1.7443,-1.7463,-1.7459,-1.7126,0,0,0,0,0,-1.7002,-1.7068,-1.7075,-1.7187,-1.7203,-1.7193,-1.7228,-1.7206,-1.7237,-1.725,-1.7262,-1.7295,-1.7358,-1.74,-1.7458,-1.7599,-1.7606,-1.7666,-1.7687,-1.7704,-1.772,-1.7797,-1.7825,-1.7531,-1.7531,-1.7531,0,0,-1.7084,-1.7098,-1.7141,-1.7209,-1.723,-1.7301,-1.7204,-1.7283,-1.7335,-1.7263,-1.7367,-1.7377,-1.7412,-1.7539,-1.7595,-1.7553,-1.7802,-1.772,-1.7733,-1.774,-1.7813,-1.7841,-1.7866,-1.7539,-1.7538,-1.7536,0,0,-1.7268,-1.7284,-1.7379,-1.7402,-1.7434,-1.7426,-1.7449,-1.7471,-1.7474,-1.7577,-1.7525,-1.7587,-1.7695,-1.7723,-1.7752,-1.7945,-1.7904,-1.7964,-1.8075,-1.8151,-1.8174,-1.8194,-1.8266,-1.8292,-1.798,-1.798,-1.798,0,-1.7365,-1.7467,-1.7434,-1.7516,-1.7549,-1.7483,-1.7581,-1.7605,-1.7656,-1.7681,-1.7631,-1.7766,-1.7785,-1.7918,-1.7965,-1.7989,-1.8017,-1.7963,-1.8173,-1.8193,-1.8212,-1.828,-1.8306,-1.7988,-1.7987,-1.7986,-1.7985,0,-1.7586,-1.7658,-1.7732,-1.7781,-1.782,-1.791,-1.7893,-1.7937,-1.7911,-1.7909,-1.8016,-1.8036,-1.8098,-1.8127,-1.8103,-1.8257,-1.823,-1.8177,-1.8091,-1.8248,-1.8311,-1.8337,-1.7998,-1.7996,-1.7993,-1.7991,0,0,-1.7844,-1.7871,-1.79,-1.7921,-1.7951,-1.8007,-1.8094,-1.8152,-1.8193,-1.8229,-1.8303,-1.8395,-1.8347,-1.8379,-1.8357,-1.8423,-1.8578,-1.8363,-1.8363,-1.8404,-1.8752,-1.8794,-1.8824,-1.8549,-1.8554,-1.8557,-1.875,0,-1.803,-1.8179,-1.8151,-1.8298,-1.8365,-1.8303,-1.8379,-1.8407,-1.8406,-1.8464,-1.8464,-1.8531,-1.846,-1.848,-1.8542,-1.8546,-1.8648,-1.8531,-1.8621,-1.8624,-1.8617,-1.8857,-1.8901,-1.9082,-1.8774,-1.8778,-1.8781,0,-1.8267,-1.8311,-1.8464,-1.8483,-1.851,-1.8579,-1.8631,-1.8686,-1.8716,-1.8712,-1.8747,-1.8713,-1.8801,-1.8711,-1.8834,-1.8756,-1.879,-1.8797,-1.8804,-1.8814,-1.8715,-1.8877,-1.9138,-1.9167,-1.8819,-1.8816,-1.8814,0,-1.8443,-1.854,-1.8644,-1.8664,-1.8689,-1.8739,-1.8752,-1.8777,-1.8814,-1.8859,-1.8883,-1.8939,-1.897,-1.9015,-1.8997,-1.8933,-1.9124,-1.9032,-1.9125,-1.9126,-1.9172,-1.917,-1.9446,-1.9189,-1.9188,-1.9188,-1.9187,0,-1.8656,-1.8752,-1.8723,-1.8788,-1.8895,-1.8862,-1.8969,-1.8975,-1.8998,-1.9064,-1.9013,-1.9076,-1.9047,-1.9109,-1.9095,-1.9201,-1.9215,-1.9215,-1.9211,-1.9222,-1.9222,-1.9246,-1.9235,-1.9195,-1.9193,-1.9192,-1.9191,0,-1.8872,-1.8856,-1.8966,-1.898,-1.8985,-1.9064,-1.9077,-1.9138,-1.9132,-1.9216,-1.9234,-1.9227,-1.9297,-1.9282,-1.936,-1.935,-1.9484,-1.9462,-1.9473,-1.9469,-1.9564,-1.9557,-1.9869,-1.9909,-1.9623,-1.9625,-1.9628,0,-1.901,-1.9083,-1.9104,-1.9143,-1.916,-1.9224,-1.9261,-1.9231,-1.9272,-1.9312,-1.9369,-1.9434,-1.9485,-1.96,-1.9603,-1.9662,-1.9644,-1.9749,-1.9653,-1.9661,-1.9649,-1.9646,-1.9654,-1.9769,-1.9773,-1.9775,-1.9777,0,-1.9258,-1.9246,-1.9301,-1.9353,-1.9398,-1.9437,-1.9473,-1.9508,-1.9481,-1.953,-1.96,-1.9639,-1.9717,-1.9784,-1.9838,-1.9853,-1.9813,-1.9807,-1.9832,-1.9846,-1.985,-1.9852,-1.9529,-1.9801,-1.9799,-1.9797,-1.9796,-1.9795,-1.9442,-1.9504,-1.9528,-1.9591,-1.9613,-1.9647,-1.9706,-1.9707,-1.9764,-1.9824,-1.9803,-1.9884,-1.9913,-1.9981,-2.0003,-2.0067,-2.0028,-2.0063,-2.0073,-2.0083,-2.0096,-1.9837,-2.0076,-2.0075,-2.0075,-2.0074,-2.0074,0,-1.969,-1.9702,-1.9759,-1.9809,-1.9859,-1.9812,-1.9848,-1.9894,-1.9965,-1.9994,-2.0044,-2.0126,-2.0189,-2.0196,-2.0256,-2.0306,-2.0289,-2.0324,-2.0322,-2.0326,-2.0126,-2.01,-2.0337,-2.0336,-2.0336,-2.0336,-2.0336,-2.0336,-1.9825,-1.9928,-1.9919,-2.0034,-2.0045,-2.0123,-2.0148,-2.0179,-2.0203,-2.0295,-2.0347,-2.035,-2.0371,-2.0432,-2.0489,-2.0489,-2.0516,-2.0558,-2.0552,-2.0366,-2.034,-2.0315,-2.029,-2.0563,-2.0563,-2.0747,-2.0748,-2.075]},{"header":{"parameterUnit":"m.s-1","parameterCategory":1,"la1":30.2991,"la2":30.254,"lo1":-89.0895,"lo2":-89.0444,"dx":0.0017,"dy":0.0017,"nx":28,"ny":28,"refTime":"2022-11-21T15:00:00:Z","depth":0,"parameterNumber":3,"parameterNumberName":"V-component_of_WINDS"},"data":[0,0,0,0,0,0,0,0,0,0,0,0,0,0,0,0,0,0,0,0,0,0,0,0,0,0,0,0,0,0,0,0,0,0,0,0,0,0,0,0,0,0,0,0,0,0,0,0,0,0,0,0,0,0,0,0,0,0,-4.4008,-4.4009,0,-4.4052,-4.4053,-4.4053,-4.3998,-4.3996,-4.3994,-4.3992,-4.4035,-4.4038,-4.4041,0,0,0,0,0,0,0,0,0,0,0,0,0,-4.3872,-4.3875,-4.4008,-4.4009,-4.4009,-4.4052,-4.4053,-4.4054,-4.3998,-4.3996,-4.3993,-4.3991,-4.4034,-4.4038,-4.4041,0,0,0,0,0,0,0,0,0,0,0,0,0,-4.3925,-4.3876,-4.4008,-4.3987,-4.3985,-4.4052,-4.4053,-4.4054,-4.3999,-4.3996,-4.3993,-4.399,-4.4033,-4.4037,-4.4042,-4.4131,0,0,-4.4056,-4.4058,0,0,0,0,0,0,0,0,-4.3922,-4.393,-4.3989,-4.3988,-4.3987,-4.4017,-4.4021,-4.408,-4.3999,-4.3994,-4.3992,-4.3988,-4.4031,-4.4036,-4.4051,-4.4133,-4.4135,-4.4056,-4.4059,-4.4061,-4.4062,0,0,0,0,0,0,0,-4.3919,-4.3928,-4.4026,-4.399,-4.3989,-4.3974,-4.3978,-4.4032,-4.4029,-4.3994,-4.399,-4.3996,-4.403,-4.4047,-4.4051,-4.4136,-4.4056,-4.406,-4.4063,-4.4065,-4.4291,-4.4294,0,0,0,0,0,0,-4.3918,-4.3925,-4.4024,-4.4027,-4.3947,-4.3979,-4.3984,-4.401,-4.4028,-4.4028,-4.3999,-4.3993,-4.404,-4.4046,-4.4053,-4.4156,-4.4061,-4.4065,-4.4068,-4.4287,-4.4291,-4.4295,0,0,0,0,0,0,-4.3915,-4.3927,-4.4022,-4.3975,-4.3986,-4.3985,-4.4015,-4.4013,-4.4029,-4.4032,-4.4031,-4.4016,-4.4038,-4.4046,-4.4112,-4.4157,-4.4067,-4.4072,-4.4284,-4.4289,-4.4293,-4.4366,0,0,0,0,0,0,-4.3912,-4.3927,-4.3962,-4.3976,-4.3989,-4.4082,-4.4018,-4.4016,-4.4037,-4.4031,-4.4048,-4.4048,-4.4036,-4.4105,-4.4116,-4.4162,-4.4075,-4.4279,-4.4286,-4.4292,-4.4359,-4.4373,-4.4384,0,0,0,0,0,-4.3907,-4.398,-4.3964,-4.3976,-4.4033,-4.4085,-4.4092,-4.4077,-4.4041,-4.4075,-4.4077,-4.4047,-4.4151,-4.4112,-4.4124,-4.4172,-4.4276,-4.4284,-4.4291,-4.4354,-4.437,-4.4384,0,0,0,0,0,0,-4.3971,-4.3982,-4.3964,-4.4044,-4.4064,-4.4075,-4.4118,-4.4095,-4.4125,-4.4118,-4.4098,-4.4102,-4.4172,-4.4178,-4.4135,-4.4258,-4.4207,-4.4217,-4.4251,-4.4266,-4.4278,-4.4275,-4.4079,0,0,0,0,0,-4.3995,-4.4037,-4.4044,-4.4114,-4.4125,-4.412,-4.4142,-4.4129,-4.4149,-4.4157,-4.4163,-4.4182,-4.4218,-4.4243,-4.4277,-4.436,-4.4362,-4.4399,-4.4411,-4.4421,-4.443,-4.4472,-4.4488,-4.4319,-4.4319,-4.4319,0,0,-4.4044,-4.4055,-4.4083,-4.4127,-4.4141,-4.4184,-4.4127,-4.4176,-4.4207,-4.4164,-4.4225,-4.4231,-4.425,-4.4325,-4.4358,-4.4332,-4.4477,-4.4431,-4.4439,-4.4442,-4.4481,-4.4497,-4.4511,-4.4324,-4.4323,-4.4322,0,0,-4.4154,-4.4168,-4.4227,-4.4242,-4.4263,-4.4259,-4.4273,-4.4288,-4.4289,-4.4351,-4.4319,-4.4355,-4.4419,-4.4434,-4.445,-4.4564,-4.4537,-4.4576,-4.464,-4.4681,-4.4694,-4.4706,-4.4745,-4.4759,-4.4585,-4.4585,-4.4585,0,-4.4212,-4.4277,-4.426,-4.431,-4.433,-4.4293,-4.4351,-4.4366,-4.4398,-4.4411,-4.4383,-4.4461,-4.4472,-4.4548,-4.4575,-4.459,-4.4604,-4.4573,-4.4694,-4.4705,-4.4716,-4.4753,-4.4768,-4.4589,-4.4589,-4.4588,-4.4588,0,-4.4346,-4.439,-4.4435,-4.4466,-4.4491,-4.4545,-4.4536,-4.4563,-4.4547,-4.4545,-4.4607,-4.4619,-4.4654,-4.4671,-4.4657,-4.4745,-4.4728,-4.4697,-4.4646,-4.4737,-4.4771,-4.4785,-4.4595,-4.4594,-4.4593,-4.4591,0,0,-4.4499,-4.4519,-4.4535,-4.4548,-4.4568,-4.4602,-4.4653,-4.4687,-4.4709,-4.4732,-4.4773,-4.4827,-4.4798,-4.4817,-4.4803,-4.484,-4.4927,-4.4804,-4.4804,-4.4825,-4.5022,-4.5044,-4.5061,-4.491,-4.4912,-4.4915,-4.502,0,-4.4608,-4.4698,-4.4684,-4.477,-4.481,-4.4774,-4.4819,-4.4835,-4.4834,-4.4867,-4.4866,-4.4904,-4.4864,-4.4874,-4.4909,-4.4909,-4.4966,-4.4902,-4.4946,-4.4948,-4.4941,-4.5079,-4.5103,-4.5201,-4.5033,-4.5035,-4.5037,0,-4.4748,-4.4775,-4.4865,-4.4877,-4.4893,-4.4934,-4.4962,-4.4995,-4.5011,-4.5008,-4.5028,-4.5007,-4.5057,-4.5005,-4.5072,-4.5029,-4.5046,-4.5049,-4.5052,-4.5055,-4.4997,-4.5084,-4.5233,-4.5247,-4.5058,-4.5057,-4.5055,0,-4.4848,-4.4907,-4.4968,-4.498,-4.4996,-4.5025,-4.5032,-4.5046,-4.5067,-4.5092,-4.5105,-4.5135,-4.5152,-4.5175,-4.5162,-4.5127,-4.5231,-4.5179,-4.5228,-4.5229,-4.5251,-4.525,-4.5404,-4.5265,-4.5265,-4.5265,-4.5264,0,-4.4971,-4.5027,-4.5013,-4.505,-4.5111,-4.5094,-4.5154,-4.5158,-4.517,-4.5206,-4.5178,-4.5212,-4.5194,-4.5227,-4.5218,-4.5273,-4.5281,-4.5279,-4.5275,-4.5281,-4.5281,-4.5291,-4.5283,-4.5269,-4.5268,-4.5267,-4.5266,0,-4.5093,-4.5086,-4.515,-4.5159,-4.5163,-4.5207,-4.5214,-4.5248,-4.5245,-4.5291,-4.5301,-4.5296,-4.5332,-4.5322,-4.5363,-4.5356,-4.5426,-4.5414,-4.542,-4.5417,-4.5466,-4.5461,-4.5631,-4.5651,-4.5501,-4.5502,-4.5504,0,-4.5172,-4.5214,-4.5227,-4.5249,-4.5259,-4.5296,-4.5316,-4.53,-4.5322,-4.5344,-4.5375,-4.5409,-4.5435,-4.5495,-4.5494,-4.5524,-4.5512,-4.557,-4.5517,-4.552,-4.5511,-4.5508,-4.5511,-4.558,-4.5582,-4.5583,-4.5584,0,-4.5311,-4.5305,-4.5336,-4.5365,-4.539,-4.5413,-4.5432,-4.5452,-4.5437,-4.5463,-4.55,-4.5521,-4.5561,-4.5595,-4.5622,-4.5628,-4.5603,-4.5601,-4.5614,-4.5619,-4.562,-4.5618,-4.5447,-4.5597,-4.5596,-4.5595,-4.5594,-4.5594,-4.5412,-4.5447,-4.5461,-4.5496,-4.5509,-4.5527,-4.5559,-4.5559,-4.559,-4.5622,-4.561,-4.5652,-4.5666,-4.5699,-4.5709,-4.5741,-4.5719,-4.5738,-4.5742,-4.5747,-4.5752,-4.5616,-4.5746,-4.5746,-4.5746,-4.5745,-4.5745,0,-4.5548,-4.5555,-4.5587,-4.5615,-4.5642,-4.5617,-4.5636,-4.566,-4.5697,-4.5713,-4.5739,-4.578,-4.5812,-4.5814,-4.5843,-4.5868,-4.5857,-4.5876,-4.5873,-4.5875,-4.5771,-4.5756,-4.5884,-4.5884,-4.5884,-4.5884,-4.5884,-4.5884,-4.5622,-4.5678,-4.5674,-4.5736,-4.5742,-4.5783,-4.5796,-4.5812,-4.5824,-4.5872,-4.5898,-4.5899,-4.5908,-4.5937,-4.5965,-4.5964,-4.5976,-4.5999,-4.5994,-4.5896,-4.5883,-4.5869,-4.5855,-4.6002,-4.6002,-4.6094,-4.6095,-4.6096]}]]